TimeCST,TemperatureF,Dew PointF,Humidity,Sea Level PressureIn,VisibilityMPH,Wind Direction,Wind SpeedMPH,Gust SpeedMPH,PrecipitationIn,Events,Conditions,WindDirDegrees,DateUTC
12:15 AM,8.6,8.6,100,30.31,10.0,Calm,Calm,-,N/A,,Clear,0,2013-03-02 06:15:00
12:35 AM,8.6,8.6,100,30.32,10.0,Calm,Calm,-,N/A,,Clear,0,2013-03-02 06:35:00
12:55 AM,8.6,8.6,100,30.31,10.0,Calm,Calm,-,N/A,,Clear,0,2013-03-02 06:55:00
1:15 AM,8.6,8.6,100,30.31,10.0,Calm,Calm,-,N/A,,Clear,0,2013-03-02 07:15:00
1:35 AM,6.8,6.8,100,30.31,7.0,Calm,Calm,-,N/A,,Clear,0,2013-03-02 07:35:00
1:55 AM,6.8,6.8,100,30.30,0.2,Calm,Calm,-,N/A,Fog,Light Freezing Fog,0,2013-03-02 07:55:00
2:15 AM,6.8,6.8,100,30.28,0.2,Calm,Calm,-,N/A,Fog,Light Freezing Fog,0,2013-03-02 08:15:00
2:35 AM,5.0,5.0,100,30.29,0.2,Calm,Calm,-,N/A,Fog,Light Freezing Fog,0,2013-03-02 08:35:00
2:55 AM,5.0,5.0,100,30.29,0.2,West,3.5,-,N/A,Fog,Light Freezing Fog,280,2013-03-02 08:55:00
3:35 AM,5.0,5.0,100,30.28,10.0,Calm,Calm,-,N/A,,Clear,0,2013-03-02 09:35:00
3:55 AM,5.0,5.0,100,30.27,10.0,Calm,Calm,-,N/A,,Clear,0,2013-03-02 09:55:00
4:15 AM,5.0,5.0,100,30.27,6.0,Calm,Calm,-,N/A,,Clear,0,2013-03-02 10:15:00
4:35 AM,5.0,5.0,100,30.27,10.0,Calm,Calm,-,N/A,,Clear,0,2013-03-02 10:35:00
4:55 AM,5.0,5.0,100,30.26,5.0,Calm,Calm,-,N/A,,Clear,0,2013-03-02 10:55:00
5:35 AM,5.0,5.0,100,30.27,10.0,Calm,Calm,-,N/A,,Clear,0,2013-03-02 11:35:00
5:55 AM,5.0,5.0,100,30.28,10.0,Calm,Calm,-,N/A,,Clear,0,2013-03-02 11:55:00
6:15 AM,6.8,6.8,100,30.26,10.0,WSW,4.6,-,N/A,,Mostly Cloudy,240,2013-03-02 12:15:00
6:35 AM,8.6,8.6,100,30.25,10.0,SSW,3.5,-,N/A,,Overcast,210,2013-03-02 12:35:00
6:55 AM,8.6,8.6,100,30.25,10.0,SSE,3.5,-,N/A,,Mostly Cloudy,160,2013-03-02 12:55:00
7:15 AM,8.6,8.6,100,30.24,10.0,ESE,4.6,-,N/A,,Partly Cloudy,120,2013-03-02 13:15:00
7:35 AM,8.6,8.6,100,30.24,10.0,ESE,3.5,-,N/A,,Partly Cloudy,120,2013-03-02 13:35:00
7:55 AM,10.4,10.4,100,30.24,10.0,SSE,5.8,-,N/A,Snow,Light Snow,150,2013-03-02 13:55:00
8:15 AM,12.2,12.2,100,30.24,10.0,South,6.9,-,N/A,,Mostly Cloudy,170,2013-03-02 14:15:00
8:35 AM,14.0,14.0,100,30.22,10.0,SSE,6.9,-,N/A,Snow,Light Snow,160,2013-03-02 14:35:00
8:55 AM,14.0,14.0,100,30.22,10.0,South,8.1,-,N/A,,Mostly Cloudy,180,2013-03-02 14:55:00
9:15 AM,14.0,14.0,100,30.23,10.0,South,8.1,-,N/A,,Overcast,180,2013-03-02 15:15:00
9:35 AM,15.8,15.8,100,30.22,10.0,South,6.9,-,N/A,,Overcast,180,2013-03-02 15:35:00
9:55 AM,15.8,15.8,100,30.23,10.0,South,8.1,-,N/A,,Overcast,180,2013-03-02 15:55:00
10:15 AM,17.6,17.6,100,30.22,10.0,SSE,9.2,-,N/A,,Overcast,160,2013-03-02 16:15:00
10:35 AM,17.6,17.6,100,30.21,10.0,SSE,11.5,-,N/A,,Overcast,160,2013-03-02 16:35:00
10:55 AM,17.6,17.6,100,30.21,10.0,SSE,12.7,-,N/A,,Overcast,160,2013-03-02 16:55:00
11:15 AM,19.4,19.4,100,30.21,10.0,South,11.5,-,N/A,,Mostly Cloudy,170,2013-03-02 17:15:00
11:35 AM,19.4,19.4,100,30.20,10.0,South,12.7,-,N/A,,Mostly Cloudy,170,2013-03-02 17:35:00
11:55 AM,19.4,19.4,100,30.20,10.0,SSE,11.5,-,N/A,,Overcast,160,2013-03-02 17:55:00
12:15 PM,21.2,21.2,100,30.19,10.0,SSE,11.5,-,N/A,,Overcast,160,2013-03-02 18:15:00
12:35 PM,23.0,23.0,100,30.18,10.0,South,12.7,-,N/A,,Overcast,170,2013-03-02 18:35:00
12:55 PM,23.0,23.0,100,30.16,10.0,South,12.7,-,N/A,,Overcast,180,2013-03-02 18:55:00
1:15 PM,23.0,23.0,100,30.15,10.0,SSE,11.5,-,N/A,,Overcast,160,2013-03-02 19:15:00
1:35 PM,23.0,23.0,100,30.15,10.0,SSE,11.5,-,N/A,,Overcast,160,2013-03-02 19:35:00
1:55 PM,24.8,24.8,100,30.14,10.0,SSE,13.8,-,N/A,,Overcast,150,2013-03-02 19:55:00
2:15 PM,24.8,24.8,100,30.12,10.0,SSE,13.8,-,N/A,,Overcast,160,2013-03-02 20:15:00
2:35 PM,24.8,24.8,100,30.12,10.0,SSE,12.7,-,N/A,,Overcast,150,2013-03-02 20:35:00
2:55 PM,24.8,24.8,100,30.11,10.0,SSE,12.7,19.6,N/A,,Overcast,160,2013-03-02 20:55:00
3:15 PM,26.6,24.8,93,30.10,10.0,SSE,12.7,-,N/A,,Overcast,150,2013-03-02 21:15:00
3:35 PM,26.6,24.8,93,30.10,10.0,SSE,13.8,-,N/A,,Overcast,160,2013-03-02 21:35:00
3:55 PM,26.6,24.8,93,30.09,10.0,SSE,15.0,-,N/A,,Overcast,150,2013-03-02 21:55:00
4:15 PM,26.6,24.8,93,30.08,10.0,SSE,13.8,-,N/A,,Partly Cloudy,150,2013-03-02 22:15:00
4:35 PM,26.6,23.0,86,30.08,10.0,SSE,11.5,-,N/A,,Clear,160,2013-03-02 22:35:00
4:55 PM,26.6,23.0,86,30.09,10.0,South,11.5,-,N/A,,Clear,170,2013-03-02 22:55:00
5:15 PM,26.6,23.0,86,30.08,10.0,South,9.2,-,N/A,,Clear,170,2013-03-02 23:15:00
5:35 PM,24.8,24.8,100,30.09,10.0,South,8.1,-,N/A,,Clear,170,2013-03-02 23:35:00
5:55 PM,23.0,23.0,100,30.08,10.0,SSE,6.9,-,N/A,,Clear,150,2013-03-02 23:55:00
6:15 PM,23.0,23.0,100,30.08,10.0,SSE,8.1,-,N/A,,Clear,160,2013-03-03 00:15:00
6:35 PM,23.0,23.0,100,30.08,10.0,SSE,6.9,-,N/A,,Clear,150,2013-03-03 00:35:00
6:55 PM,21.2,21.2,100,30.07,10.0,SSE,9.2,-,N/A,,Clear,160,2013-03-03 00:55:00
7:15 PM,21.2,21.2,100,30.08,10.0,SSE,8.1,-,N/A,,Clear,150,2013-03-03 01:15:00
7:35 PM,21.2,21.2,100,30.07,10.0,SSE,8.1,-,N/A,,Clear,150,2013-03-03 01:35:00
7:55 PM,21.2,21.2,100,30.06,10.0,SSE,6.9,-,N/A,,Clear,160,2013-03-03 01:55:00
8:15 PM,21.2,21.2,100,30.06,10.0,SSE,6.9,-,N/A,,Clear,150,2013-03-03 02:15:00
8:35 PM,21.2,21.2,100,30.05,10.0,SSE,8.1,-,N/A,,Clear,150,2013-03-03 02:35:00
8:55 PM,21.2,21.2,100,30.04,10.0,SSE,9.2,-,N/A,,Clear,160,2013-03-03 02:55:00
9:15 PM,19.4,19.4,100,30.04,10.0,SSE,6.9,-,N/A,,Clear,150,2013-03-03 03:15:00
9:35 PM,19.4,19.4,100,30.03,10.0,SSE,8.1,-,N/A,,Partly Cloudy,150,2013-03-03 03:35:00
9:55 PM,19.4,19.4,100,30.03,10.0,SE,6.9,-,N/A,,Scattered Clouds,140,2013-03-03 03:55:00
10:15 PM,19.4,19.4,100,30.03,10.0,South,6.9,-,N/A,,Mostly Cloudy,170,2013-03-03 04:15:00
10:35 PM,19.4,19.4,100,30.02,10.0,SSE,9.2,-,N/A,,Scattered Clouds,150,2013-03-03 04:35:00
10:55 PM,19.4,19.4,100,30.01,10.0,SSE,10.4,-,N/A,,Scattered Clouds,150,2013-03-03 04:55:00
11:15 PM,19.4,19.4,100,30.00,10.0,SSE,9.2,-,N/A,,Partly Cloudy,150,2013-03-03 05:15:00
11:35 PM,19.4,19.4,100,29.99,10.0,South,8.1,-,N/A,,Clear,170,2013-03-03 05:35:00
11:55 PM,19.4,19.4,100,29.99,10.0,SSE,8.1,-,N/A,,Partly Cloudy,160,2013-03-03 05:55:00